Location: Oberwangen
(47.4286°N, 8.9679°E)
Time: 21:54:14
(UTC+00:00)

Cosmos 1340 - Pass Details

Date: 20 June 2021
Orbit: 499 x 504 km, 81.2° (Epoch: 23 July)

Event Time Altitude Azimuth Distance (km) Brightness Sun altitude
Exits shadow 21:07:14 - 198° (SSW) 1,796 5.1 -12.6°
Reaches altitude 10° 21:07:26 10° 198° (SSW) 1,711 5.0 -12.6°
Maximum altitude 21:11:11 70° 282° (WNW) 543 2.9 -12.9°
Drops below altitude 10° 21:14:58 10° 7° (N) 1,727 6.2 -13.3°
Sets 21:17:06 0° 10° (N) 2,618 7.1 -13.4°
